Location: Lane
(33.5226°N, 79.8788°W)
Time: 08:51:31
(UTC+00:00)

SR - Pass Details

Date: 29 September 2022
Orbit: 577 x 874 km, 66.7° (Epoch: 03 December)

Event Time Altitude Azimuth Distance (km) Brightness Sun altitude
Rises 13:37:27 0° 313° (NW) 3,229 ? 28.4°
Reaches altitude 10° 13:40:51 10° 292° (WNW) 2,232 ? 29.0°
Maximum altitude 13:43:43 15° 257° (WSW) 1,838 ? 29.6°
Drops below altitude 10° 13:46:27 10° 222° (SW) 2,111 ? 30.1°
Sets 13:49:33 0° 199° (SSW) 2,958 ? 30.7°
